Theta_e
331 331 330 329 329 329 329 328 327 328 328 329 329 328 329 330 328 327 328 328 328 327 328 327 326 327 328 327 326 324 320 319 322 324 323 324 325 325 325 324 325 326
330 330 329 328 328 328 329 329 329 329 329 328 328 327 327 327 326 326 327 328 327 326 328 327 326 326 327 327 326 324 321 319 323 324 323 323 325 325 324 324 325 325
330 329 329 328 328 329 330 330 329 329 329 329 328 327 326 326 327 327 327 327 327 326 325 325 324 323 324 325 325 323 322 323 325 325 323 323 325 325 324 324 325 325
328 329 330 330 330 331 331 330 330 330 331 330 329 329 328 327 328 328 326 324 324 323 320 320 322 321 322 325 323 322 323 324 324 323 323 323 324 325 325 325 326 325
327 329 330 331 331 331 331 330 330 330 330 330 329 329 328 328 327 325 322 321 320 317 315 320 324 323 324 325 322 320 321 323 323 323 324 323 322 323 325 326 326 326
327 329 330 329 329 330 330 330 330 329 329 329 329 328 328 326 322 318 319 319 315 312 316 323 325 323 324 324 323 322 321 321 322 322 324 323 322 322 324 325 326 326
326 329 330 328 327 329 330 329 329 329 328 328 328 327 325 322 319 318 317 314 310 312 319 324 323 323 325 324 323 323 321 320 321 321 321 323 324 323 323 324 326 326
324 327 329 327 326 329 330 329 329 329 327 326 325 322 320 320 319 316 312 308 309 315 320 322 322 323 323 321 322 322 320 319 320 320 321 322 324 324 322 324 327 327
324 327 328 326 326 329 329 328 328 326 324 321 317 318 322 323 320 315 313 313 313 315 318 321 323 322 321 321 322 322 319 318 319 320 320 322 323 323 322 324 327 327
325 327 328 327 327 328 327 326 324 321 321 319 315 320 326 325 320 318 319 320 318 317 318 321 323 321 321 322 321 320 319 319 320 320 320 321 323 323 321 322 326 327
324 326 328 327 326 326 326 326 324 321 322 321 318 323 327 324 320 320 321 319 319 318 320 322 322 321 322 322 319 318 319 320 320 320 321 321 322 322 321 322 325 326
325 326 327 326 326 326 327 328 325 323 322 321 321 325 327 322 319 320 321 319 318 318 321 323 321 321 322 320 317 318 319 320 320 321 321 322 322 322 321 322 324 325
327 327 326 325 326 327 328 327 324 321 320 321 324 326 325 321 319 320 320 319 317 318 321 322 321 321 320 317 317 319 319 319 320 321 321 321 322 322 322 323 323 323
327 327 325 325 327 327 327 325 323 321 322 323 324 324 322 320 320 321 320 318 318 318 319 320 320 320 318 317 319 320 319 320 320 320 320 320 320 321 322 322 322 322
327 327 326 326 327 327 326 324 322 322 324 324 324 323 322 322 321 321 320 318 318 318 319 319 319 319 319 319 320 320 320 320 320 319 320 320 320 320 320 321 321 321
327 326 327 327 326 326 326 324 323 323 323 323 323 323 323 323 321 321 320 319 318 318 318 319 319 319 320 320 320 320 320 320 320 320 320 321 322 322 321 322 321 320
327 326 326 327 326 326 326 325 324 323 322 323 323 322 323 322 321 320 320 318 318 317 317 319 319 320 320 320 320 320 320 320 321 321 321 322 323 323 322 322 322 322
325 326 326 326 326 326 325 325 324 323 323 323 322 321 321 321 320 320 320 319 318 317 317 318 319 320 320 320 320 320 320 321 321 321 322 322 322 323 323 322 322 322
325 326 326 326 326 325 325 324 323 323 323 322 321 320 320 320 319 320 321 320 319 319 319 319 320 320 320 320 320 320 320 321 321 321 322 322 322 322 322 321 320 320
326 326 326 326 325 325 324 324 323 322 322 322 320 319 319 319 319 320 321 321 320 321 320 319 320 319 319 319 320 320 320 321 322 322 321 321 321 321 321 321 319 318
325 326 326 326 325 325 324 323 322 322 321 321 320 319 319 320 319 320 321 321 321 321 320 320 321 320 319 319 318 319 320 319 319 318 315 314 315 315 316 317 316 316
323 323 324 324 325 324 324 323 322 321 321 320 319 318 319 320 320 320 320 318 318 318 317 316 317 317 317 318 318 318 317 314 312 313 313 313 313 313 312 313 313 313
321 322 322 322 323 324 324 323 322 321 320 319 317 316 317 318 320 319 317 314 313 313 312 311 311 311 312 315 315 314 312 310 311 313 313 313 313 314 315 315 315 315
320 321 321 321 321 322 322 322 321 320 319 317 317 316 314 315 316 316 314 312 311 310 309 308 308 309 310 311 311 310 310 310 312 313 313 313 314 316 317 317 317 317
320 320 320 320 320 320 320 320 319 319 318 317 317 315 312 313 314 314 313 313 311 310 311 310 311 311 312 311 311 311 311 312 313 313 314 315 315 316 317 317 317 317
318 319 319 319 319 319 319 319 318 317 317 317 317 316 315 315 314 313 312 312 311 312 315 316 317 316 316 315 314 314 314 315 315 315 316 317 317 317 317 317 317 317
Wind_Speed
18 19 19 19 20 19 18 19 18 18 19 19 18 17 17 16 15 15 16 15 16 18 16 15 15 13 11 11 9 7 9 12 12 11 11 11 10 11 10 9 10 9
17 18 20 20 20 20 20 19 19 19 18 17 16 16 16 16 16 17 18 18 17 18 19 18 17 16 14 13 11 7 7 10 11 10 10 10 10 10 9 9 8 7
17 17 18 20 22 23 22 21 19 18 18 17 17 17 17 18 18 17 17 19 18 18 19 18 17 16 15 15 12 8 7 10 11 10 10 9 9 9 9 9 9 9
18 16 17 21 24 24 24 22 20 18 18 19 19 19 18 18 18 17 16 18 18 15 15 15 15 15 15 14 11 9 10 11 11 10 10 10 10 9 9 10 10 10
18 17 19 23 24 24 24 22 21 20 20 20 20 19 18 17 17 17 15 15 14 13 14 16 15 15 14 12 10 10 11 11 10 10 9 8 8 8 9 11 11 12
19 18 21 22 21 21 23 23 22 22 21 21 20 19 18 17 17 15 14 13 13 15 19 19 16 15 14 12 12 11 11 11 10 9 7 6 6 7 9 11 13 13
21 20 22 21 19 20 22 22 21 21 21 21 19 18 18 17 15 12 11 12 14 17 20 18 17 18 15 13 13 12 10 12 11 8 7 7 7 6 5 9 12 12
22 22 23 21 20 21 22 21 21 20 20 19 18 18 17 15 12 11 13 13 16 18 18 18 18 17 15 14 13 12 12 12 10 9 8 8 8 5 3 8 11 10
21 23 24 22 21 22 21 20 20 19 19 18 18 18 18 14 11 13 14 13 14 16 17 18 18 16 15 14 12 12 13 11 9 10 10 9 8 5 4 7 11 10
23 24 24 23 23 21 19 18 17 17 18 17 18 21 19 14 13 14 13 11 10 11 15 18 17 16 15 12 11 14 13 10 10 10 9 10 9 5 4 7 11 12
25 26 24 23 23 21 20 18 16 16 18 18 20 23 19 15 15 15 13 12 9 9 14 16 15 16 13 9 12 15 12 11 12 9 8 10 10 5 4 7 10 11
26 27 24 24 23 22 22 19 15 15 18 19 21 22 19 16 17 16 14 12 10 10 14 13 13 15 11 9 13 15 13 14 13 10 11 12 11 7 6 8 9 10
27 26 24 24 24 23 22 17 14 15 17 20 23 21 18 17 18 17 15 14 11 11 12 12 13 13 10 12 16 15 15 15 11 10 12 12 11 10 9 9 8 9
26 26 26 26 25 23 20 17 16 17 17 20 21 18 17 17 19 18 16 15 14 12 12 13 14 13 12 15 16 14 15 14 11 12 12 10 10 11 10 10 9 9
28 27 27 26 24 21 18 17 19 20 18 19 18 17 16 16 18 18 16 16 16 15 14 15 15 15 14 16 15 14 15 14 12 14 14 11 11 11 10 9 9 9
27 27 26 25 23 21 19 19 21 21 20 19 19 18 17 16 17 17 16 17 17 16 16 16 15 15 15 15 15 14 15 14 12 12 12 11 11 11 10 9 8 8
25 25 25 24 25 25 23 21 21 21 21 20 21 20 18 18 19 17 17 18 17 16 17 17 16 17 16 16 15 14 15 15 12 11 11 10 9 9 9 7 7 8
23 23 23 24 25 25 24 23 22 23 22 21 22 21 19 21 21 17 17 18 18 18 19 18 17 18 17 17 16 15 14 14 13 11 10 10 9 8 8 7 7 7
24 23 23 23 24 24 24 24 23 24 23 21 22 21 19 22 22 18 16 18 18 19 20 18 17 17 17 17 17 15 13 12 11 10 9 8 7 7 7 7 7 8
25 26 24 23 23 23 23 23 23 25 25 23 23 21 19 21 21 18 17 16 16 16 17 17 17 16 16 16 16 16 14 12 10 8 5 4 4 5 6 6 6 7
19 23 24 24 24 22 21 21 23 26 26 24 24 22 19 18 17 16 16 14 12 11 12 14 15 13 14 15 14 14 13 11 8 5 3 4 6 7 8 8 8 8
12 13 14 17 21 22 19 18 20 23 25 26 25 21 17 15 15 14 14 12 10 7 8 11 11 10 12 14 12 11 12 10 8 6 7 9 10 10 10 10 10 10
11 8 6 8 13 18 19 18 18 20 22 22 17 12 12 14 13 13 13 13 12 9 8 10 9 8 9 12 11 11 11 9 7 8 10 11 11 10 10 10 10 10
14 11 9 8 10 13 16 16 15 15 15 13 9 10 15 16 14 13 14 13 13 12 10 9 9 7 8 9 10 10 10 10 11 11 10 11 10 9 9 9 10 9
15 13 12 13 12 12 12 13 13 12 13 13 13 15 18 18 15 13 13 12 11 12 11 11 11 10 9 10 11 11 12 12 13 12 11 11 10 10 9 9 9 8
16 15 15 15 15 13 13 13 14 15 15 15 15 16 16 15 12 10 9 9 9 9 9 8 9 9 9 10 11 11 12 11 11 10 10 9 10 10 11 11 10 10
Wind_Direction
192 187 184 179 176 177 177 175 173 174 174 173 171 165 160 160 162 161 159 159 161 164 167 167 171 174 165 167 180 186 182 180 176 175 174 173 177 185 188 192 195 191
190 182 180 177 173 171 171 169 168 169 167 166 165 161 162 166 166 164 163 167 174 176 175 178 182 177 169 174 184 193 183 174 175 172 170 172 175 180 184 183 183 182
188 181 179 175 170 166 164 164 165 164 160 158 161 162 163 164 166 169 173 179 185 186 185 188 189 183 181 185 187 191 177 164 165 163 162 167 170 174 176 172 171 172
182 181 180 174 168 163 160 161 165 167 164 160 161 164 164 166 173 178 183 187 190 193 189 181 175 172 174 180 180 172 160 154 154 153 153 157 158 163 166 163 168 175
175 183 182 174 167 162 160 162 168 172 170 165 165 171 174 177 182 184 184 184 186 186 170 156 154 158 162 168 168 160 151 145 142 142 147 151 146 151 162 164 168 175
176 182 181 172 165 163 163 168 174 177 176 175 175 179 183 184 183 183 181 179 177 167 156 151 151 152 156 159 157 156 150 139 132 133 143 149 134 135 153 164 168 171
177 179 177 172 168 168 170 176 181 184 186 187 185 183 183 180 178 176 175 174 168 157 155 157 154 152 160 162 153 150 144 136 132 128 129 134 131 124 137 165 172 171
180 178 175 173 171 172 177 182 183 185 191 190 185 180 176 173 169 164 163 163 160 159 159 157 154 157 163 156 146 143 141 140 146 148 137 134 143 142 146 168 173 172
185 180 175 175 175 176 182 186 186 189 193 188 177 170 169 169 160 149 146 145 150 159 160 154 154 157 154 149 150 154 148 142 148 157 149 141 152 166 169 168 169 169
185 181 178 178 176 179 185 186 184 186 186 181 168 160 163 166 151 139 138 137 141 151 153 154 158 154 152 163 169 157 146 137 140 147 145 148 159 164 164 166 162 163
186 185 184 177 171 175 181 179 176 177 178 174 161 157 164 164 146 142 146 148 149 149 149 155 158 152 157 181 172 152 142 137 138 132 130 154 165 148 135 159 158 158
188 186 183 173 169 174 177 176 175 176 176 169 157 158 168 163 149 149 153 153 152 147 150 156 154 153 166 177 158 148 143 139 136 126 120 135 145 124 111 133 139 147
185 181 176 171 172 175 177 181 179 171 168 162 158 163 170 160 151 152 153 153 150 144 150 158 154 155 164 154 145 144 144 142 139 139 133 129 127 118 114 120 118 131
180 176 174 173 176 177 180 184 170 159 158 158 160 164 162 154 153 153 150 152 156 154 157 160 157 156 152 145 144 148 152 151 147 148 146 139 136 131 124 127 127 133
175 175 175 176 176 176 178 173 159 155 159 159 161 162 159 157 154 150 151 157 162 165 165 163 161 158 150 149 154 157 159 159 155 153 150 141 141 143 137 139 145 149
173 175 177 173 168 167 167 162 157 159 163 162 162 162 162 161 154 150 159 166 167 168 168 166 164 160 157 159 164 162 160 159 153 153 154 146 145 152 153 154 164 171
173 177 180 174 167 165 164 161 161 163 166 167 166 164 164 161 157 158 165 169 170 173 172 171 169 165 163 165 166 162 160 157 149 146 153 154 155 163 167 171 183 193
179 182 183 178 172 168 164 164 165 166 167 168 166 166 165 163 164 166 168 171 176 176 174 174 172 168 166 166 166 163 162 162 158 155 157 161 167 177 186 196 212 227
186 184 183 179 174 170 170 169 167 167 169 167 165 165 164 165 169 171 168 171 174 172 171 173 172 166 165 166 168 169 170 168 166 168 171 174 183 197 205 216 235 253
186 185 183 180 175 172 175 174 168 166 166 163 162 163 163 167 173 175 172 173 175 173 171 174 176 171 167 167 171 175 176 174 171 173 181 197 221 239 241 247 259 268
178 184 182 179 177 173 173 173 166 162 162 162 162 160 158 161 168 175 177 176 175 176 179 184 188 185 179 176 175 177 181 182 183 197 231 267 278 280 277 274 277 282
153 170 174 173 172 171 173 175 169 164 165 163 159 155 154 156 162 173 180 182 183 184 183 183 181 180 186 190 191 194 196 194 200 235 279 296 297 292 289 287 286 287
126 136 153 168 171 174 180 182 178 174 169 162 159 167 176 175 175 178 179 180 185 182 168 164 161 160 177 191 200 208 210 214 234 263 281 289 290 290 293 296 296 296
109 113 126 144 163 177 184 183 180 176 171 167 175 188 187 186 189 188 180 176 182 188 188 192 199 199 196 200 211 220 229 246 262 269 269 270 273 279 287 291 292 291
106 109 118 126 137 152 162 164 166 167 165 165 168 171 176 182 187 187 183 179 185 198 207 210 213 217 222 223 227 234 240 247 256 261 263 267 271 275 278 281 281 279
109 111 114 117 121 131 141 149 156 160 159 158 160 165 172 177 180 186 193 193 194 202 209 210 211 217 224 229 234 241 245 250 257 263 266 266 269 273 276 278 280 280